User: anonymous   Login
Location: Unspecified
(0.0000°N, 0.0000°E)
Time: 09:06:31
(UTC+00:00)
Language:

PRISMA (TANGO) - Orbit

View from above orbital plane
View from above orbital plane
View from above satellite
View from above satellite

Ground track
Ground track

The orbit data is extracted from the following two-line orbital elements,

1 36827U 10028F   19345.72214986 +.00000009 +00000-0 +16212-4 0  9993
2 36827 098.5289 160.8919 0042536 190.7684 169.2598 14.42423805359671
Epoch (UTC): 11 December 2019 17:19:53
Eccentricity: 0.0042536
inclination: 98.5289°
perigee height: 720 km
apogee height: 781 km
right ascension of ascending node: 160.8919°
argument of perigee: 190.7684°
revolutions per day: 14.42423805
mean anomaly at epoch: 169.2598°
orbit number at epoch: 35967

The dashed part of the orbit path shows where the satellite is in the earth's shadow,  

DLR